Starlink 31994

operational
NORAD ID: 60588 Int'l Des: 2024-150 Owner: SPXS Country: US Constellation: starlink
LEOCIRCULAR

Über Starlink 31994

Beschreibung wird geladen...

Live-Position

3D-Globus wird geladen...

Nächste Überflüge

Höhenverlauf

Altitude vs Time

uPlot chart will show altitude changes over time

Zweizeiliger Elementsatz

1 60588U 24150F 25353.60700857 .00000780 00000-0 38449-4 0 9997
2 60588 53.1619 318.7660 0001192 94.3573 265.7564 15.30194277 75702
Epoch: 19. Dez. 2025 • Age: 22 hours

Aktueller Status

Höhe 480.9 km
Geschwindigkeit 7.63 km/s
Subsatellitenpunkt 52.64°N, 109.34°E
Startdatum 20. Aug. 2024
Alter 1.3 years
Typ internet

Technische Details

Klassifizierung Payload
Masse 730.00 kg
Trockenmasse 700.00 kg
Gesamtmasse 730.00 kg
Länge 0.30 m
Durchmesser 4.10 m
Spannweite 29.00 m
Form Box + pan
Hersteller SPXS
Bus-Typ Starlink V2M
Phasenstatus In Orbit
Besitzer/Staat SPXS/US

Große Konstellationen

Loading constellations...